TimePDT,TemperatureF,Dew PointF,Humidity,Sea Level PressureIn,VisibilityMPH,Wind Direction,Wind SpeedMPH,Gust SpeedMPH,PrecipitationIn,Events,Conditions,WindDirDegrees,DateUTC
12:15 AM,37.4,33.8,87,29.97,10.0,Calm,Calm,-,N/A,,Clear,0,2013-09-26 07:15:00
12:35 AM,37.4,33.8,87,29.97,10.0,Calm,Calm,-,N/A,,Clear,0,2013-09-26 07:35:00
12:55 AM,35.6,33.8,93,29.97,10.0,Calm,Calm,-,N/A,,Clear,0,2013-09-26 07:55:00
1:15 AM,35.6,32.0,87,29.98,10.0,Calm,Calm,-,N/A,,Clear,0,2013-09-26 08:15:00
1:35 AM,35.6,32.0,87,29.98,10.0,Calm,Calm,-,N/A,,Clear,0,2013-09-26 08:35:00
1:55 AM,35.6,32.0,87,29.98,10.0,Calm,Calm,-,N/A,,Clear,0,2013-09-26 08:55:00
2:15 AM,35.6,32.0,87,29.98,10.0,Calm,Calm,-,N/A,,Clear,0,2013-09-26 09:15:00
2:35 AM,35.6,32.0,87,29.98,10.0,Calm,Calm,-,N/A,,Clear,0,2013-09-26 09:35:00
2:55 AM,33.8,32.0,93,29.99,10.0,Calm,Calm,-,N/A,,Clear,0,2013-09-26 09:55:00
3:15 AM,33.8,32.0,93,29.99,10.0,Calm,Calm,-,N/A,,Clear,0,2013-09-26 10:15:00
3:35 AM,33.8,32.0,93,29.99,10.0,Calm,Calm,-,N/A,,Clear,0,2013-09-26 10:35:00
3:55 AM,33.8,32.0,93,29.99,10.0,Calm,Calm,-,N/A,,Clear,0,2013-09-26 10:55:00
4:15 AM,32.0,32.0,100,30.00,10.0,Calm,Calm,-,N/A,,Clear,0,2013-09-26 11:15:00
4:35 AM,32.0,32.0,100,30.00,10.0,Calm,Calm,-,N/A,,Clear,0,2013-09-26 11:35:00
4:55 AM,32.0,32.0,100,30.00,10.0,Calm,Calm,-,N/A,,Clear,0,2013-09-26 11:55:00
5:15 AM,32.0,32.0,100,30.00,10.0,Calm,Calm,-,N/A,,Clear,0,2013-09-26 12:15:00
5:35 AM,32.0,30.2,93,30.00,10.0,Calm,Calm,-,N/A,,Clear,0,2013-09-26 12:35:00
5:55 AM,32.0,32.0,100,30.00,10.0,NNW,4.6,-,N/A,,Partly Cloudy,330,2013-09-26 12:55:00
6:15 AM,32.0,30.2,93,30.00,10.0,Calm,Calm,-,N/A,,Mostly Cloudy,0,2013-09-26 13:15:00
6:35 AM,32.0,32.0,100,30.00,10.0,Calm,Calm,-,N/A,,Mostly Cloudy,0,2013-09-26 13:35:00
6:55 AM,32.0,32.0,100,30.00,10.0,Calm,Calm,-,N/A,,Overcast,0,2013-09-26 13:55:00
7:15 AM,33.8,32.0,93,30.01,10.0,Calm,Calm,-,N/A,,Overcast,0,2013-09-26 14:15:00
7:35 AM,35.6,32.0,87,30.02,10.0,Calm,Calm,-,N/A,,Overcast,0,2013-09-26 14:35:00
7:55 AM,35.6,33.8,93,30.02,10.0,Calm,Calm,-,N/A,,Overcast,0,2013-09-26 14:55:00
8:15 AM,37.4,33.8,87,30.03,10.0,Calm,Calm,-,N/A,,Overcast,0,2013-09-26 15:15:00
8:35 AM,37.4,35.6,93,30.04,10.0,Calm,Calm,-,N/A,,Overcast,0,2013-09-26 15:35:00
8:55 AM,39.2,35.6,87,30.04,10.0,Calm,Calm,-,N/A,,Overcast,0,2013-09-26 15:55:00
9:15 AM,39.2,35.6,87,30.04,10.0,Calm,Calm,-,N/A,,Overcast,0,2013-09-26 16:15:00
9:35 AM,41.0,35.6,81,30.05,10.0,Calm,Calm,-,N/A,,Overcast,0,2013-09-26 16:35:00
9:55 AM,41.0,35.6,81,30.05,10.0,Calm,Calm,-,N/A,,Overcast,0,2013-09-26 16:55:00
10:15 AM,44.6,37.4,76,30.05,10.0,North,3.5,-,N/A,,Scattered Clouds,10,2013-09-26 17:15:00
10:35 AM,46.4,37.4,71,30.05,10.0,SW,3.5,-,N/A,,Clear,220,2013-09-26 17:35:00
10:55 AM,48.2,37.4,66,30.04,10.0,SE,3.5,-,N/A,,Clear,130,2013-09-26 17:55:00
11:15 AM,50.0,35.6,58,30.03,10.0,WSW,3.5,-,N/A,,Clear,240,2013-09-26 18:15:00
11:35 AM,51.8,33.8,50,30.03,10.0,Calm,Calm,-,N/A,,Clear,0,2013-09-26 18:35:00
11:55 AM,53.6,32.0,44,30.03,10.0,South,3.5,-,N/A,,Clear,190,2013-09-26 18:55:00
12:15 PM,55.4,32.0,41,30.02,10.0,South,4.6,-,N/A,,Clear,180,2013-09-26 19:15:00
12:35 PM,55.4,32.0,41,30.02,10.0,Calm,Calm,-,N/A,,Clear,0,2013-09-26 19:35:00
12:55 PM,57.2,33.8,41,30.02,10.0,South,3.5,-,N/A,,Clear,170,2013-09-26 19:55:00
1:15 PM,59.0,32.0,36,30.01,10.0,SSW,5.8,-,N/A,,Clear,210,2013-09-26 20:15:00
1:35 PM,60.8,33.8,36,30.00,10.0,NW,3.5,-,N/A,,Clear,310,2013-09-26 20:35:00
1:55 PM,62.6,33.8,34,29.99,10.0,SSW,5.8,-,N/A,,Clear,210,2013-09-26 20:55:00
2:15 PM,62.6,32.0,32,29.99,10.0,West,9.2,-,N/A,,Clear,270,2013-09-26 21:15:00
2:35 PM,62.6,32.0,32,29.99,10.0,SW,3.5,-,N/A,,Clear,230,2013-09-26 21:35:00
2:55 PM,62.6,33.8,34,29.98,10.0,SW,10.4,-,N/A,,Partly Cloudy,230,2013-09-26 21:55:00
3:15 PM,64.4,32.0,30,29.98,10.0,SSE,5.8,-,N/A,,Scattered Clouds,160,2013-09-26 22:15:00
3:35 PM,64.4,32.0,30,29.98,10.0,NE,4.6,-,N/A,,Mostly Cloudy,40,2013-09-26 22:35:00
3:55 PM,62.6,28.4,27,29.98,10.0,South,3.5,-,N/A,,Partly Cloudy,190,2013-09-26 22:55:00
4:15 PM,64.4,28.4,26,29.98,10.0,East,4.6,-,N/A,,Clear,80,2013-09-26 23:15:00
4:35 PM,64.4,28.4,26,29.99,10.0,East,5.8,-,N/A,,Clear,90,2013-09-26 23:35:00
4:55 PM,64.4,28.4,26,29.99,10.0,East,4.6,-,N/A,,Clear,80,2013-09-26 23:55:00
5:15 PM,62.6,28.4,27,29.99,10.0,Calm,Calm,-,N/A,,Clear,0,2013-09-27 00:15:00
5:35 PM,60.8,28.4,29,30.00,10.0,NNE,4.6,-,N/A,,Clear,30,2013-09-27 00:35:00
5:55 PM,59.0,28.4,31,30.01,10.0,NE,4.6,-,N/A,,Clear,40,2013-09-27 00:55:00
6:15 PM,60.8,28.4,29,30.01,10.0,NE,3.5,-,N/A,,Partly Cloudy,50,2013-09-27 01:15:00
6:35 PM,59.0,28.4,31,30.02,10.0,NE,3.5,-,N/A,,Clear,50,2013-09-27 01:35:00
6:55 PM,57.2,28.4,33,30.03,10.0,NE,4.6,-,N/A,,Clear,50,2013-09-27 01:55:00
7:15 PM,57.2,28.4,33,30.03,10.0,NNE,8.1,-,N/A,,Clear,20,2013-09-27 02:15:00
7:35 PM,55.4,32.0,41,30.04,10.0,ENE,3.5,-,N/A,,Clear,70,2013-09-27 02:35:00
7:55 PM,51.8,30.2,44,30.05,10.0,NE,5.8,-,N/A,,Clear,40,2013-09-27 02:55:00
8:15 PM,50.0,32.0,50,30.06,10.0,ENE,4.6,-,N/A,,Clear,60,2013-09-27 03:15:00
8:35 PM,48.2,32.0,54,30.07,10.0,Calm,Calm,-,N/A,,Clear,0,2013-09-27 03:35:00
8:55 PM,46.4,32.0,57,30.08,10.0,Calm,Calm,-,N/A,,Clear,0,2013-09-27 03:55:00
9:15 PM,44.6,32.0,61,30.08,10.0,Calm,Calm,-,N/A,,Clear,0,2013-09-27 04:15:00
9:35 PM,44.6,32.0,61,30.09,10.0,Calm,Calm,-,N/A,,Clear,0,2013-09-27 04:35:00
9:55 PM,41.0,32.0,70,30.10,10.0,Calm,Calm,-,N/A,,Clear,0,2013-09-27 04:55:00
10:15 PM,41.0,32.0,70,30.11,10.0,Calm,Calm,-,N/A,,Clear,0,2013-09-27 05:15:00
10:35 PM,41.0,32.0,70,30.11,10.0,Calm,Calm,-,N/A,,Clear,0,2013-09-27 05:35:00
10:55 PM,41.0,32.0,70,30.12,10.0,Calm,Calm,-,N/A,,Clear,0,2013-09-27 05:55:00
11:15 PM,41.0,32.0,70,30.12,10.0,Calm,Calm,-,N/A,,Clear,0,2013-09-27 06:15:00
11:35 PM,39.2,32.0,75,30.13,10.0,NNE,3.5,-,N/A,,Clear,20,2013-09-27 06:35:00
11:55 PM,39.2,32.0,75,30.13,10.0,NNE,3.5,-,N/A,,Clear,20,2013-09-27 06:55:00